Location: Unspecified
(0.0000°N, 0.0000°E)
Time: 02:42:12
(UTC+02:00)

Iridium 75 - Visible Passes

Search period start: 23 July 2017 00:00
Search period end: 02 August 2017 00:00
Orbit: 776 x 779 km, 86.4° (Epoch: 22 July)

Date Brightness Start Highest point End Pass type
(mag) Time Alt. Az. Time Alt. Az. Time Alt. Az.
23 Jul 6.6 07:35:08 10° N 07:40:18 66° E 07:45:28 10° S visible
24 Jul 8.1 07:02:23 10° NNE 07:06:51 29° E 07:11:19 10° SSE visible
25 Jul 9.0 06:31:05 10° ENE 06:33:24 13° E 06:35:42 10° ESE visible
25 Jul 9.3 20:45:33 10° WSW 20:47:21 12° W 20:49:10 10° WNW visible
26 Jul 6.0 07:35:10 10° N 07:40:21 77° W 07:45:35 10° S visible
27 Jul 7.1 07:01:55 10° NNE 07:06:54 47° E 07:11:54 10° SSE visible
28 Jul 8.5 06:29:34 10° NE 06:33:27 21° E 06:37:21 10° SE visible
29 Jul 6.3 07:35:27 10° NNW 07:40:25 47° W 07:45:25 10° SSW visible
30 Jul 6.2 07:01:46 10° N 07:06:58 78° E 07:12:11 10° S visible
31 Jul 7.6 06:28:50 10° NNE 06:33:31 34° E 06:38:12 10° SSE visible
01 Aug 8.8 05:57:03 10° NE 06:00:05 16° E 06:03:05 10° SE visible
01 Aug 6.9 07:36:03 10° NNW 07:40:29 29° W 07:44:57 10° SSW visible
